This is the latest recevied weather packets stored in our database for station/object WMKJ. If no packets are shown the sender has not sent any weather packets the latest 10 day(s).
| Time | Temp. | Humidity | Pressure | Rain* | Wind** | Luminosity | Snow |
|---|---|---|---|---|---|---|---|
| 1777835424 | 23.89° C | 94% | 1009 hPa | - | - | - | - |
| 1777817420 | 25° C | 94% | 1009 hPa | - | - | - | - |
| 1777803023 | 25.56° C | 88% | 1007 hPa | - | - | - | - |
| 1777799423 | 25.56° C | 88% | 1007 hPa | - | - | - | - |
| 1777795832 | 25.56° C | 88% | 1007 hPa | - | - | - | - |
| 1777794008 | 25.56° C | 88% | 1007 hPa | - | - | - | - |
| 1777792224 | 26.67° C | 83% | 1007 hPa | - | - | - | - |
| 1777791594 | 27.78° C | 83% | 1007 hPa | - | - | - | - |
| 1777790405 | 30.56° C | 70% | 1007 hPa | - | - | - | - |
| 1777788623 | 33.89° C | 59% | 1007 hPa | - | - | - | - |
| 1777785022 | 33.89° C | 59% | 1008 hPa | - | - | - | - |
| 1777781431 | 32.78° C | 59% | 1009 hPa | - | - | - | - |
| 1777777824 | 30.56° C | 70% | 1010 hPa | - | - | - | - |
| 1777774227 | 30° C | 74% | 1010 hPa | - | - | - | - |
| 1777770622 | 27.78° C | 83% | 1009 hPa | - | - | - | - |
| 1777759822 | 23.89° C | 94% | 1007 hPa | - | - | - | - |
| 1777752621 | 25° C | 88% | 1007 hPa | - | - | - | - |
| 1777749035 | 25° C | 88% | 1008 hPa | - | - | - | - |
| 1777745421 | 25° C | 88% | 1008 hPa | - | - | - | - |
| 1777741820 | 25° C | 94% | 1009 hPa | - | - | - | - |
| 1777740621 | 25° C | 94% | 1010 hPa | - | - | - | - |
| 1777738221 | 25° C | 94% | 1010 hPa | - | - | - | - |
| 1777734621 | 25.56° C | 88% | 1009 hPa | - | - | - | - |
| 1777731032 | 25.56° C | 88% | 1009 hPa | - | - | - | - |
| 1777727421 | 25.56° C | 88% | 1008 hPa | - | - | - | - |
* Rain since midnight (hover to see other rain measurements)
** Current wind speed in m/s (hover to see current wind gust speed)